Powrót do katalogu

FENGYUN 1C DEB

AktywnySSO
NORAD 31739·DEBRIS·🇨🇳 China

Wystrzelony May 10, 1999 z Taiyuan Satellite Launch Center

Loading…

Następne Przeloty (najbliższe 24 godziny)

TLE

ŚwieżeSource: Space-Track

Epoka: Sep 12, 2026, 09:31 UTC

1 31739U 99025CEN 26255.39666864  .00000076  00000-0  52742-4 0  9993
2 31739  98.7101 311.7090 0127364  11.3401 349.0598 14.19328782993683

Śledź FENGYUN 1C DEB w czasie rzeczywistym z AllMySat

Download on the App Store